Home   Weather   Taipei   Past weeks
Flag for Taiwan

Past Weather in Taipei, Taiwan — Yesterday and Last 2 Weeks

Now
79 °F

Sprinkles. Partly cloudy.


Feels Like: 83 °F
Forecast: 91 / 77 °F
Wind: 3 mph from Northwest

Location: Sungshan / Taipei

Current Time: Apr 22, 2019 at 8:22:51 pm

Latest Report: Apr 22, 2019 at 7:53 pm


Visibility: 2 mi

Pressure: 29.83 "Hg

Humidity: 94%

Dew Point: 77 °F

Location of TaipeiLocation

Past Weather in Taipei — Graph

°F

Taipei Temperature Yesterday

Maximum temperature yesterday: 86 °F (at 12:00 pm)
Minimum temperature yesterday: 73 °F (at 12:10 am)
Average temperature yesterday: 78 °F

High & Low Weather Summary for the Past Weeks

 TemperatureHumidityPressure
High91 °F (Apr 8, 11:30 am)100% (Apr 21, 4:25 am)30.07 "Hg (Apr 21, 4:25 am)
Low64 °F (Apr 11, 7:20 pm)42% (Apr 17, 3:00 pm)29.74 "Hg (Apr 9, 3:30 pm)
Average75 °F78%29.88 "Hg
* Reported Apr 7 7:00 pm — Apr 22 7:00 pm, Taipei. Weather by CustomWeather, © 2019

Note: Actual official high and low records may vary slightly from our data, if they occured in-between our weather recording intervals... More about our weather records

Advertising

Taipei Weather History for the Previous 24 Hours

Scroll right to see more
 ConditionsComfort  
Time TempWeatherWind HumidityBarometerVisibility
7:00 pm
Mon, Apr 22
79 °FSprinkles. Passing clouds.2 mph94%29.80 "Hg3 mi
6:30 pm79 °FSprinkles. Passing clouds.5 mph94%29.80 "Hg3 mi
6:17 pm79 °FSprinkles. Partly sunny.2 mph94%29.77 "Hg3 mi
5:30 pm79 °FRain showers. Partly sunny.7 mph94%29.77 "Hg2 mi
5:00 pm79 °FSprinkles. Partly sunny.7 mph89%29.77 "Hg4 mi
4:30 pm79 °FSprinkles. Partly sunny.6 mph89%29.77 "Hg3 mi
4:11 pm77 °FStrong thunderstorms. Broken clouds.8 mph94%29.77 "Hg2 mi
3:30 pm84 °FSprinkles. Partly sunny.3 mph74%29.74 "HgN/A
3:11 pm84 °FSprinkles. Partly sunny.3 mph74%29.74 "HgN/A
2:30 pm86 °FPartly sunny.5 mph70%29.77 "HgN/A
2:00 pm88 °FPartly sunny.3 mph66%29.77 "HgN/A
1:30 pm90 °FPartly sunny.6 mph67%29.77 "HgN/A
1:00 pm90 °FScattered clouds.8 mph67%29.77 "HgN/A
12:30 pm91 °FScattered clouds.9 mph63%29.80 "HgN/A
12:00 pm91 °FScattered clouds.7 mph59%29.80 "HgN/A
11:30 am91 °FScattered clouds.8 mph56%29.80 "HgN/A
11:00 am91 °FPassing clouds.9 mph52%29.80 "HgN/A
10:30 am91 °FPassing clouds.8 mph56%29.80 "HgN/A
10:00 am91 °FPassing clouds.5 mph56%29.80 "HgN/A
9:30 am88 °FPassing clouds.5 mph62%29.80 "HgN/A
9:00 am86 °FPassing clouds.5 mph66%29.83 "HgN/A
8:30 am86 °FPassing clouds.3 mph66%29.80 "HgN/A
8:00 am84 °FPassing clouds.3 mph70%29.80 "HgN/A
7:30 am82 °FPassing clouds.1 mph74%29.80 "HgN/A
7:00 am81 °FPassing clouds.2 mph79%29.80 "HgN/A
6:30 am77 °FPassing clouds.2 mph89%29.77 "HgN/A
6:00 am73 °FPassing clouds.2 mph94%29.77 "HgN/A
5:00 am73 °FPassing clouds.2 mph94%29.77 "HgN/A
4:00 am73 °FPassing clouds.1 mph94%29.77 "HgN/A
3:00 am75 °FPassing clouds.No wind89%29.77 "HgN/A
2:00 am75 °FPassing clouds.3 mph89%29.80 "HgN/A
1:00 am75 °FPartly cloudy.3 mph89%29.80 "HgN/A
12:00 am75 °FPartly cloudy.5 mph89%29.80 "HgN/A
11:30 pm
Sun, Apr 21
77 °FPassing clouds.5 mph83%29.80 "HgN/A
11:00 pm75 °FPassing clouds.5 mph89%29.83 "HgN/A
10:30 pm77 °FPassing clouds.8 mph83%29.83 "HgN/A
10:00 pm75 °FPassing clouds.6 mph89%29.83 "HgN/A
9:30 pm75 °FPartly cloudy.5 mph83%29.83 "HgN/A
9:00 pm77 °FPartly cloudy.6 mph83%29.80 "HgN/A
8:45 pm77 °FLight rain. Partly cloudy.6 mph79%29.80 "HgN/A
8:30 pm77 °FPartly cloudy.5 mph83%29.80 "HgN/A
8:00 pm77 °FPassing clouds.8 mph83%29.80 "HgN/A
Weather by CustomWeather, © 2019

See weather overview